User: anonymous   Login
Location: Arboyeti
(42.1122°N, 44.6017°E)
Time: 04:09:46
(UTC+00:00)
Language:

Genesis I - Orbit

View from above orbital plane
View from above orbital plane
View from above satellite
View from above satellite

Ground track
Ground track

The orbit data is extracted from the following two-line orbital elements,

1 29252U 06029A   21174.41620059  .00000605  00000-0  38472-4 0  9998
2 29252  64.5202 167.7854 0044946 315.8253  43.9284 15.18697674824427
Epoch (UTC): 23 June 2021 09:59:19
Eccentricity: 0.0044946
inclination: 64.5202°
perigee height: 479 km
apogee height: 541 km
right ascension of ascending node: 167.7854°
argument of perigee: 315.8253°
revolutions per day: 15.18697674
mean anomaly at epoch: 43.9284°
orbit number at epoch: 82442

The dashed part of the orbit path shows where the satellite is in the earth's shadow,  

DLR